Location: Angwan Shehu
(11.2514°N, 7.4613°E)
Time: 04:57:12
(UTC+00:00)

Cosmos 1606 - Pass Details

Date: 14 November 2019
Orbit: 504 x 528 km, 82.5° (Epoch: 12 December)

Event Time Altitude Azimuth Distance (km) Brightness Sun altitude
Rises 18:24:22 0° 188° (S) 2,629 6.6 -19.9°
Reaches altitude 10° 18:26:31 10° 190° (S) 1,738 5.7 -20.4°
Maximum altitude 18:30:18 72° 274° (W) 542 2.8 -21.3°
Enters shadow 18:31:55 32° 351° (N) 889 3.8 -21.7°
